Time,TemperatureF,DewpointF,PressureIn,WindDirection,WindDirectionDegrees,WindSpeedMPH,WindSpeedGustMPH,Humidity,HourlyPrecipIn,Conditions,Clouds,dailyrainin,SoftwareType,DateUTC
2013-03-25 00:00:00,77.7,73.9,30.75,SW,233,1.0,9.0,88,0.00,,,0.00,Wunderground v.1.15,2013-03-25 04:00:00,
2013-03-25 00:02:00,77.7,73.9,30.75,SW,223,1.0,9.0,88,0.00,,,0.00,Wunderground v.1.15,2013-03-25 04:02:00,
2013-03-25 00:04:00,77.7,73.9,30.75,WSW,242,1.0,9.0,88,0.00,,,0.00,Wunderground v.1.15,2013-03-25 04:04:00,
2013-03-25 00:07:00,77.7,73.9,30.75,SW,214,2.0,9.0,88,0.00,,,0.00,Wunderground v.1.15,2013-03-25 04:07:00,
2013-03-25 00:12:00,77.6,73.8,30.75,SW,230,1.0,9.0,88,0.00,,,0.00,Wunderground v.1.15,2013-03-25 04:12:00,
2013-03-25 00:18:00,77.7,73.9,30.75,WSW,249,1.0,9.0,88,0.00,,,0.00,Wunderground v.1.15,2013-03-25 04:18:00,
2013-03-25 00:24:00,77.7,73.9,30.75,WSW,256,1.0,9.0,88,0.00,,,0.00,Wunderground v.1.15,2013-03-25 04:24:00,
2013-03-25 00:30:00,77.7,73.9,30.75,WSW,238,1.0,1.0,88,0.00,,,0.00,Wunderground v.1.15,2013-03-25 04:30:00,
2013-03-25 00:36:00,77.7,73.9,30.75,West,264,1.0,9.0,88,0.00,,,0.00,Wunderground v.1.15,2013-03-25 04:36:00,
2013-03-25 00:41:00,77.8,74.0,30.75,WSW,239,1.0,9.0,88,0.00,,,0.00,Wunderground v.1.15,2013-03-25 04:41:00,
2013-03-25 00:47:00,77.7,73.9,30.75,SW,226,1.0,9.0,88,0.00,,,0.00,Wunderground v.1.15,2013-03-25 04:47:00,
2013-03-25 00:53:00,77.8,74.0,30.75,SSW,212,0.0,9.0,88,0.00,,,0.00,Wunderground v.1.15,2013-03-25 04:53:00,
2013-03-25 00:59:00,77.8,74.0,30.75,SW,223,1.0,9.0,88,0.00,,,0.00,Wunderground v.1.15,2013-03-25 04:59:00,
2013-03-25 01:04:00,77.7,73.9,30.75,SSW,208,1.0,9.0,88,0.00,,,0.00,Wunderground v.1.15,2013-03-25 05:04:00,
2013-03-25 01:09:00,77.9,74.4,30.75,SW,221,1.0,9.0,89,0.00,,,0.00,Wunderground v.1.15,2013-03-25 05:09:00,
2013-03-25 01:15:00,77.9,74.7,30.75,SW,214,1.0,9.0,90,0.00,,,0.00,Wunderground v.1.15,2013-03-25 05:15:00,
2013-03-25 01:20:00,77.9,74.7,30.75,WSW,253,2.0,2.0,90,0.00,,,0.00,Wunderground v.1.15,2013-03-25 05:20:00,
2013-03-25 01:26:00,77.7,74.9,30.75,SE,134,2.0,9.0,91,0.00,,,0.00,Wunderground v.1.15,2013-03-25 05:26:00,
2013-03-25 01:32:00,77.6,74.8,30.75,SW,224,2.0,9.0,91,0.00,,,0.00,Wunderground v.1.15,2013-03-25 05:32:00,
2013-03-25 01:37:00,77.5,74.7,30.75,SW,215,1.0,9.0,91,0.00,,,0.00,Wunderground v.1.15,2013-03-25 05:37:00,
2013-03-25 01:42:00,77.5,74.7,30.75,SW,233,1.0,9.0,91,0.00,,,0.00,Wunderground v.1.15,2013-03-25 05:42:00,
2013-03-25 01:48:00,77.5,74.7,30.75,SSE,160,1.0,9.0,91,0.00,,,0.00,Wunderground v.1.15,2013-03-25 05:48:00,
2013-03-25 01:53:00,77.4,74.6,30.74,SW,224,2.0,9.0,91,0.00,,,0.00,Wunderground v.1.15,2013-03-25 05:53:00,
2013-03-25 01:59:00,77.4,74.9,30.74,South,173,2.0,9.0,92,0.00,,,0.00,Wunderground v.1.15,2013-03-25 05:59:00,
2013-03-25 02:04:00,77.4,74.9,30.74,SW,214,1.0,9.0,92,0.00,,,0.00,Wunderground v.1.15,2013-03-25 06:04:00,
2013-03-25 02:10:00,77.3,74.8,30.74,SW,222,1.0,9.0,92,0.00,,,0.00,Wunderground v.1.15,2013-03-25 06:10:00,
2013-03-25 02:15:00,77.2,74.7,30.74,SW,229,1.0,9.0,92,0.00,,,0.00,Wunderground v.1.15,2013-03-25 06:15:00,
2013-03-25 02:20:00,77.2,74.7,30.74,SW,228,2.0,9.0,92,0.00,,,0.00,Wunderground v.1.15,2013-03-25 06:20:00,
2013-03-25 02:25:00,77.2,74.7,30.74,SW,221,2.0,9.0,92,0.00,,,0.00,Wunderground v.1.15,2013-03-25 06:25:00,
2013-03-25 02:31:00,77.1,74.6,30.73,SW,229,2.0,9.0,92,0.00,,,0.00,Wunderground v.1.15,2013-03-25 06:31:00,
2013-03-25 02:36:00,77.0,74.5,30.73,SW,217,2.0,9.0,92,0.00,,,0.00,Wunderground v.1.15,2013-03-25 06:36:00,
2013-03-25 02:42:00,76.9,74.4,30.73,SSW,212,3.0,9.0,92,0.00,,,0.00,Wunderground v.1.15,2013-03-25 06:42:00,
2013-03-25 02:47:00,76.9,74.1,30.73,SW,235,3.0,9.0,91,0.00,,,0.00,Wunderground v.1.15,2013-03-25 06:47:00,
2013-03-25 02:52:00,76.8,74.0,30.73,SSW,205,2.0,9.0,91,0.00,,,0.00,Wunderground v.1.15,2013-03-25 06:52:00,
2013-03-25 02:58:00,76.8,73.6,30.73,SW,230,3.0,9.0,90,0.00,,,0.00,Wunderground v.1.15,2013-03-25 06:58:00,
2013-03-25 03:04:00,76.8,73.6,30.72,WSW,241,3.0,9.0,90,0.00,,,0.00,Wunderground v.1.15,2013-03-25 07:04:00,
2013-03-25 03:09:00,76.8,73.6,30.73,West,266,3.0,9.0,90,0.00,,,0.00,Wunderground v.1.15,2013-03-25 07:09:00,
2013-03-25 03:15:00,77.0,73.8,30.73,West,264,3.0,9.0,90,0.00,,,0.00,Wunderground v.1.15,2013-03-25 07:15:00,
2013-03-25 03:21:00,77.1,73.6,30.73,WSW,238,3.0,9.0,89,0.00,,,0.00,Wunderground v.1.15,2013-03-25 07:21:00,
2013-03-25 03:27:00,77.2,73.7,30.73,WSW,239,3.0,9.0,89,0.00,,,0.00,Wunderground v.1.15,2013-03-25 07:27:00,
2013-03-25 03:32:00,77.4,73.9,30.72,West,263,4.0,9.0,89,0.00,,,0.00,Wunderground v.1.15,2013-03-25 07:32:00,
2013-03-25 03:37:00,77.4,73.6,30.73,SW,222,3.0,9.0,88,0.00,,,0.00,Wunderground v.1.15,2013-03-25 07:37:00,
2013-03-25 03:42:00,77.4,73.2,30.73,West,273,3.0,9.0,87,0.00,,,0.00,Wunderground v.1.15,2013-03-25 07:42:00,
2013-03-25 03:48:00,76.7,71.8,30.73,WNW,285,4.0,9.0,85,0.00,,,0.00,Wunderground v.1.15,2013-03-25 07:48:00,
2013-03-25 03:53:00,76.4,71.6,30.73,West,264,3.0,9.0,85,0.00,,,0.00,Wunderground v.1.15,2013-03-25 07:53:00,
2013-03-25 03:59:00,76.3,71.5,30.72,West,263,3.0,9.0,85,0.00,,,0.00,Wunderground v.1.15,2013-03-25 07:59:00,
2013-03-25 04:04:00,76.5,71.7,30.72,West,266,2.0,9.0,85,0.00,,,0.00,Wunderground v.1.15,2013-03-25 08:04:00,
2013-03-25 04:09:00,76.7,72.2,30.72,SW,224,2.0,9.0,86,0.00,,,0.00,Wunderground v.1.15,2013-03-25 08:09:00,
2013-03-25 04:15:00,76.8,72.3,30.72,West,264,2.0,9.0,86,0.00,,,0.00,Wunderground v.1.15,2013-03-25 08:15:00,
2013-03-25 04:20:00,76.9,72.4,30.72,SW,236,2.0,9.0,86,0.00,,,0.00,Wunderground v.1.15,2013-03-25 08:20:00,
2013-03-25 04:26:00,76.9,72.7,30.72,WSW,255,3.0,9.0,87,0.00,,,0.00,Wunderground v.1.15,2013-03-25 08:26:00,
2013-03-25 04:31:00,77.1,72.9,30.72,SW,224,3.0,9.0,87,0.00,,,0.00,Wunderground v.1.15,2013-03-25 08:31:00,
2013-03-25 04:36:00,77.2,73.4,30.72,SW,229,3.0,9.0,88,0.00,,,0.00,Wunderground v.1.15,2013-03-25 08:36:00,
2013-03-25 04:42:00,77.4,73.6,30.72,SSW,198,3.0,9.0,88,0.00,,,0.00,Wunderground v.1.15,2013-03-25 08:42:00,
2013-03-25 04:48:00,77.4,73.6,30.72,SSW,193,4.0,9.0,88,0.00,,,0.00,Wunderground v.1.15,2013-03-25 08:48:00,
2013-03-25 04:53:00,77.3,73.5,30.72,SW,224,4.0,9.0,88,0.00,,,0.00,Wunderground v.1.15,2013-03-25 08:53:00,
2013-03-25 04:59:00,77.2,73.4,30.71,West,276,4.0,9.0,88,0.00,,,0.00,Wunderground v.1.15,2013-03-25 08:59:00,
2013-03-25 05:05:00,77.2,73.4,30.71,SW,236,4.0,9.0,88,0.00,,,0.00,Wunderground v.1.15,2013-03-25 09:05:00,
2013-03-25 05:10:00,77.1,73.6,30.71,SSW,197,4.0,4.0,89,0.00,,,0.00,Wunderground v.1.15,2013-03-25 09:10:00,
2013-03-25 05:15:00,77.0,73.5,30.72,SW,218,3.0,11.0,89,0.00,,,0.00,Wunderground v.1.15,2013-03-25 09:15:00,
2013-03-25 05:21:00,77.0,73.5,30.71,WSW,252,4.0,9.0,89,0.00,,,0.00,Wunderground v.1.15,2013-03-25 09:21:00,
2013-03-25 05:26:00,76.9,73.4,30.71,WSW,240,5.0,13.0,89,0.00,,,0.00,Wunderground v.1.15,2013-03-25 09:26:00,
2013-03-25 05:32:00,76.8,73.6,30.71,WSW,237,5.0,9.0,90,0.00,,,0.00,Wunderground v.1.15,2013-03-25 09:32:00,
2013-03-25 05:38:00,76.8,73.6,30.71,SW,233,5.0,9.0,90,0.00,,,0.00,Wunderground v.1.15,2013-03-25 09:38:00,
2013-03-25 05:44:00,76.7,73.5,30.71,SW,215,5.0,9.0,90,0.00,,,0.00,Wunderground v.1.15,2013-03-25 09:44:00,
2013-03-25 05:49:00,76.6,73.8,30.71,SW,215,5.0,9.0,91,0.00,,,0.00,Wunderground v.1.15,2013-03-25 09:49:00,
2013-03-25 05:54:00,76.5,73.7,30.71,West,271,5.0,9.0,91,0.00,,,0.00,Wunderground v.1.15,2013-03-25 09:54:00,
2013-03-25 06:00:00,76.5,73.7,30.71,South,171,6.0,6.0,91,0.00,,,0.00,Wunderground v.1.15,2013-03-25 10:00:00,
2013-03-25 06:06:00,76.4,73.6,30.72,SSW,195,5.0,9.0,91,0.00,,,0.00,Wunderground v.1.15,2013-03-25 10:06:00,
2013-03-25 06:12:00,76.4,73.6,30.72,SW,215,5.0,7.0,91,0.00,,,0.00,Wunderground v.1.15,2013-03-25 10:12:00,
2013-03-25 06:18:00,76.4,73.6,30.72,SSW,204,5.0,9.0,91,0.00,,,0.00,Wunderground v.1.15,2013-03-25 10:18:00,
2013-03-25 06:23:00,76.4,73.9,30.71,West,259,4.0,12.0,92,0.00,,,0.00,Wunderground v.1.15,2013-03-25 10:23:00,
2013-03-25 06:29:00,76.4,73.9,30.71,SSW,200,5.0,12.0,92,0.00,,,0.00,Wunderground v.1.15,2013-03-25 10:29:00,
2013-03-25 06:34:00,76.4,73.9,30.72,West,278,4.0,9.0,92,0.00,,,0.00,Wunderground v.1.15,2013-03-25 10:34:00,
2013-03-25 06:40:00,76.4,73.9,30.72,SW,229,5.0,5.0,92,0.00,,,0.00,Wunderground v.1.15,2013-03-25 10:40:00,
2013-03-25 06:46:00,76.4,73.9,30.73,West,267,5.0,9.0,92,0.00,,,0.00,Wunderground v.1.15,2013-03-25 10:46:00,
2013-03-25 06:51:00,76.4,73.9,30.73,WSW,258,5.0,9.0,92,0.00,,,0.00,Wunderground v.1.15,2013-03-25 10:51:00,
2013-03-25 06:56:00,76.4,73.9,30.73,SW,214,5.0,9.0,92,0.00,,,0.00,Wunderground v.1.15,2013-03-25 10:56:00,
2013-03-25 07:02:00,76.4,73.9,30.74,SSE,148,4.0,9.0,92,0.00,,,0.00,Wunderground v.1.15,2013-03-25 11:02:00,
2013-03-25 07:08:00,76.4,73.9,30.74,SSW,212,4.0,9.0,92,0.00,,,0.00,Wunderground v.1.15,2013-03-25 11:08:00,
2013-03-25 07:13:00,76.5,74.0,30.74,WSW,255,5.0,13.0,92,0.00,,,0.00,Wunderground v.1.15,2013-03-25 11:13:00,
2013-03-25 07:18:00,76.5,74.0,30.74,West,263,5.0,13.0,92,0.00,,,0.00,Wunderground v.1.15,2013-03-25 11:18:00,
2013-03-25 07:23:00,76.5,73.7,30.75,SW,217,5.0,9.0,91,0.00,,,0.00,Wunderground v.1.15,2013-03-25 11:23:00,
2013-03-25 07:29:00,76.6,73.8,30.76,West,269,6.0,11.0,91,0.00,,,0.00,Wunderground v.1.15,2013-03-25 11:29:00,
2013-03-25 07:35:00,76.6,73.8,30.77,WSW,239,4.0,9.0,91,0.00,,,0.00,Wunderground v.1.15,2013-03-25 11:35:00,
2013-03-25 07:40:00,76.7,73.9,30.77,West,271,3.0,3.0,91,0.00,,,0.00,Wunderground v.1.15,2013-03-25 11:40:00,
2013-03-25 07:45:00,76.7,73.9,30.77,WSW,238,3.0,9.0,91,0.00,,,0.00,Wunderground v.1.15,2013-03-25 11:45:00,
2013-03-25 07:51:00,76.7,73.9,30.76,WSW,252,4.0,10.0,91,0.00,,,0.00,Wunderground v.1.15,2013-03-25 11:51:00,
2013-03-25 07:56:00,76.7,73.9,30.78,SW,233,4.0,10.0,91,0.00,,,0.00,Wunderground v.1.15,2013-03-25 11:56:00,
2013-03-25 08:02:00,76.8,74.0,30.78,WSW,255,4.0,9.0,91,0.00,,,0.00,Wunderground v.1.15,2013-03-25 12:02:00,
2013-03-25 08:08:00,76.8,74.0,30.77,West,260,4.0,9.0,91,0.00,,,0.00,Wunderground v.1.15,2013-03-25 12:08:00,
2013-03-25 08:13:00,76.9,74.1,30.78,SW,228,3.0,9.0,91,0.00,,,0.00,Wunderground v.1.15,2013-03-25 12:13:00,
2013-03-25 08:19:00,77.0,74.2,30.78,WNW,293,4.0,9.0,91,0.00,,,0.00,Wunderground v.1.15,2013-03-25 12:19:00,
2013-03-25 08:25:00,76.1,72.3,30.79,NNW,332,3.0,9.0,88,0.00,,,0.00,Wunderground v.1.15,2013-03-25 12:25:00,
2013-03-25 08:30:00,75.5,72.4,30.78,WSW,250,1.0,1.0,90,0.00,,,0.00,Wunderground v.1.15,2013-03-25 12:30:00,
2013-03-25 08:36:00,75.4,72.6,30.80,NW,321,1.0,9.0,91,0.00,,,0.00,Wunderground v.1.15,2013-03-25 12:36:00,
2013-03-25 08:41:00,75.1,72.3,30.80,NW,323,2.0,9.0,91,0.98,,,0.02,Wunderground v.1.15,2013-03-25 12:41:00,
2013-03-25 08:46:00,74.2,71.7,30.81,NW,309,2.0,9.0,92,0.27,,,0.05,Wunderground v.1.15,2013-03-25 12:46:00,
2013-03-25 08:52:00,73.7,71.5,30.81,NW,310,2.0,9.0,93,0.12,,,0.07,Wunderground v.1.15,2013-03-25 12:52:00,
2013-03-25 08:58:00,73.1,71.0,30.81,NW,319,1.0,9.0,93,0.12,,,0.08,Wunderground v.1.15,2013-03-25 12:58:00,
2013-03-25 09:03:00,72.8,71.3,30.81,NW,316,2.0,9.0,95,0.08,,,0.09,Wunderground v.1.15,2013-03-25 13:03:00,
2013-03-25 09:09:00,72.2,70.4,30.81,WNW,298,2.0,9.0,94,0.07,,,0.09,Wunderground v.1.15,2013-03-25 13:09:00,
2013-03-25 09:15:00,72.0,70.5,30.81,NE,37,1.0,9.0,95,0.04,,,0.09,Wunderground v.1.15,2013-03-25 13:15:00,
2013-03-25 09:21:00,72.7,71.2,30.81,NW,304,1.0,9.0,95,0.00,,,0.09,Wunderground v.1.15,2013-03-25 13:21:00,
2013-03-25 09:27:00,72.9,71.4,30.82,WSW,256,1.0,9.0,95,0.00,,,0.09,Wunderground v.1.15,2013-03-25 13:27:00,
2013-03-25 09:33:00,72.9,71.4,30.81,WNW,297,1.0,9.0,95,0.00,,,0.09,Wunderground v.1.15,2013-03-25 13:33:00,
2013-03-25 09:38:00,73.1,71.6,30.82,West,280,0.0,9.0,95,0.00,,,0.09,Wunderground v.1.15,2013-03-25 13:38:00,
2013-03-25 09:44:00,73.1,71.6,30.82,West,262,0.0,9.0,95,0.00,,,0.09,Wunderground v.1.15,2013-03-25 13:44:00,
2013-03-25 09:50:00,73.1,71.3,30.82,NW,311,0.0,9.0,94,0.00,,,0.09,Wunderground v.1.15,2013-03-25 13:50:00,
2013-03-25 09:55:00,73.4,71.9,30.82,West,267,0.0,9.0,95,0.00,,,0.09,Wunderground v.1.15,2013-03-25 13:55:00,
2013-03-25 10:01:00,73.5,71.7,30.82,WNW,302,0.0,9.0,94,0.00,,,0.09,Wunderground v.1.15,2013-03-25 14:01:00,
2013-03-25 10:06:00,73.6,72.1,30.82,WNW,302,0.0,9.0,95,0.00,,,0.10,Wunderground v.1.15,2013-03-25 14:06:00,
2013-03-25 10:12:00,73.7,71.9,30.82,West,267,0.0,9.0,94,0.00,,,0.10,Wunderground v.1.15,2013-03-25 14:12:00,
2013-03-25 10:18:00,73.9,72.4,30.83,WSW,258,0.0,9.0,95,0.00,,,0.10,Wunderground v.1.15,2013-03-25 14:18:00,
2013-03-25 10:23:00,74.2,72.7,30.83,West,260,0.0,9.0,95,0.00,,,0.10,Wunderground v.1.15,2013-03-25 14:23:00,
2013-03-25 10:29:00,74.8,73.3,30.83,West,277,0.0,9.0,95,0.00,,,0.10,Wunderground v.1.15,2013-03-25 14:29:00,
2013-03-25 10:35:00,75.4,73.6,30.83,WNW,291,0.0,9.0,94,0.00,,,0.10,Wunderground v.1.15,2013-03-25 14:35:00,
2013-03-25 10:43:00,76.4,74.5,30.83,WNW,293,0.0,9.0,94,0.00,,,0.10,Wunderground v.1.15,2013-03-25 14:43:00,
2013-03-25 10:48:00,76.6,74.4,30.83,NNW,340,0.0,9.0,93,0.00,,,0.10,Wunderground v.1.15,2013-03-25 14:48:00,
2013-03-25 10:54:00,77.1,74.9,30.83,NNW,334,0.0,9.0,93,0.00,,,0.10,Wunderground v.1.15,2013-03-25 14:54:00,
2013-03-25 10:59:00,77.6,74.8,30.83,North,356,0.0,9.0,91,0.00,,,0.10,Wunderground v.1.15,2013-03-25 14:59:00,
2013-03-25 11:05:00,78.0,74.8,30.83,NW,309,0.0,9.0,90,0.00,,,0.10,Wunderground v.1.15,2013-03-25 15:05:00,
2013-03-25 11:10:00,78.7,75.2,30.83,NNW,332,0.0,9.0,89,0.00,,,0.10,Wunderground v.1.15,2013-03-25 15:10:00,
2013-03-25 11:16:00,78.6,73.7,30.83,NW,310,0.0,9.0,85,0.00,,,0.10,Wunderground v.1.15,2013-03-25 15:16:00,
2013-03-25 11:21:00,78.3,71.6,30.83,NNW,333,1.0,9.0,80,0.00,,,0.10,Wunderground v.1.15,2013-03-25 15:21:00,
2013-03-25 11:27:00,78.5,71.4,30.84,NW,316,1.0,9.0,79,0.00,,,0.10,Wunderground v.1.15,2013-03-25 15:27:00,
2013-03-25 11:33:00,78.6,71.2,30.84,NNW,328,1.0,9.0,78,0.00,,,0.10,Wunderground v.1.15,2013-03-25 15:33:00,
2013-03-25 11:39:00,79.2,71.0,30.83,NW,325,1.0,9.0,76,0.00,,,0.10,Wunderground v.1.15,2013-03-25 15:39:00,
2013-03-25 11:45:00,79.5,71.3,30.83,NNW,342,2.0,9.0,76,0.00,,,0.10,Wunderground v.1.15,2013-03-25 15:45:00,
2013-03-25 11:50:00,79.4,71.2,30.83,North,358,3.0,3.0,76,0.00,,,0.10,Wunderground v.1.15,2013-03-25 15:50:00,
2013-03-25 11:56:00,80.2,72.3,30.83,NW,311,2.0,9.0,77,0.00,,,0.10,Wunderground v.1.15,2013-03-25 15:56:00,
2013-03-25 12:01:00,80.3,71.6,30.83,North,351,1.0,9.0,75,0.00,,,0.10,Wunderground v.1.15,2013-03-25 16:01:00,
2013-03-25 12:06:00,80.4,71.7,30.83,NW,315,2.0,9.0,75,0.00,,,0.10,Wunderground v.1.15,2013-03-25 16:06:00,
2013-03-25 12:12:00,80.3,71.3,30.83,NNE,24,2.0,9.0,74,0.00,,,0.10,Wunderground v.1.15,2013-03-25 16:12:00,
2013-03-25 12:18:00,80.9,72.6,30.83,North,354,2.0,9.0,76,0.00,,,0.10,Wunderground v.1.15,2013-03-25 16:18:00,
2013-03-25 12:24:00,81.1,72.0,30.83,NW,321,1.0,9.0,74,0.00,,,0.10,Wunderground v.1.15,2013-03-25 16:24:00,
2013-03-25 12:29:00,80.8,72.1,30.82,NW,323,1.0,9.0,75,0.00,,,0.10,Wunderground v.1.15,2013-03-25 16:29:00,
2013-03-25 12:35:00,80.9,72.6,30.83,NNW,343,1.0,9.0,76,0.00,,,0.10,Wunderground v.1.15,2013-03-25 16:35:00,
2013-03-25 12:42:00,81.3,72.2,30.82,NW,311,1.0,9.0,74,0.00,,,0.10,Wunderground v.1.15,2013-03-25 16:42:00,
2013-03-25 12:47:00,80.9,71.8,30.82,NNE,24,2.0,9.0,74,0.00,,,0.10,Wunderground v.1.15,2013-03-25 16:47:00,
2013-03-25 12:52:00,80.9,71.8,30.82,North,356,2.0,9.0,74,0.00,,,0.10,Wunderground v.1.15,2013-03-25 16:52:00,
2013-03-25 12:57:00,81.0,72.7,30.82,NNE,32,2.0,9.0,76,0.00,,,0.10,Wunderground v.1.15,2013-03-25 16:57:00,
2013-03-25 13:04:00,81.4,72.7,30.82,NW,315,2.0,9.0,75,0.00,,,0.10,Wunderground v.1.15,2013-03-25 17:04:00,
2013-03-25 13:09:00,82.3,73.6,30.83,NW,317,1.0,9.0,75,0.00,,,0.10,Wunderground v.1.15,2013-03-25 17:09:00,
2013-03-25 13:14:00,81.9,73.2,30.82,NW,309,1.0,9.0,75,0.00,,,0.10,Wunderground v.1.15,2013-03-25 17:14:00,
2013-03-25 13:19:00,81.7,72.6,30.82,NW,314,1.0,9.0,74,0.00,,,0.10,Wunderground v.1.15,2013-03-25 17:19:00,
2013-03-25 13:25:00,81.5,72.8,30.82,WNW,297,1.0,9.0,75,0.00,,,0.10,Wunderground v.1.15,2013-03-25 17:25:00,
2013-03-25 13:30:00,82.0,73.3,30.82,NW,307,2.0,2.0,75,0.00,,,0.10,Wunderground v.1.15,2013-03-25 17:30:00,
2013-03-25 13:36:00,82.5,73.0,30.82,North,6,2.0,9.0,73,0.00,,,0.10,Wunderground v.1.15,2013-03-25 17:36:00,
2013-03-25 13:41:00,82.7,72.3,30.81,North,350,2.0,9.0,71,0.00,,,0.10,Wunderground v.1.15,2013-03-25 17:41:00,
2013-03-25 13:47:00,82.1,70.1,30.81,NW,316,2.0,9.0,67,0.00,,,0.10,Wunderground v.1.15,2013-03-25 17:47:00,
2013-03-25 13:52:00,82.0,70.8,30.81,NNW,333,2.0,9.0,69,0.00,,,0.10,Wunderground v.1.15,2013-03-25 17:52:00,
2013-03-25 13:58:00,83.1,71.9,30.81,North,357,2.0,9.0,69,0.00,,,0.10,Wunderground v.1.15,2013-03-25 17:58:00,
2013-03-25 14:05:00,83.5,72.3,30.80,NNW,339,1.0,9.0,69,0.00,,,0.10,Wunderground v.1.15,2013-03-25 18:05:00,
2013-03-25 14:10:00,83.3,71.6,30.80,NW,315,1.0,9.0,68,0.00,,,0.10,Wunderground v.1.15,2013-03-25 18:10:00,
2013-03-25 14:15:00,83.2,72.4,30.80,NW,312,2.0,9.0,70,0.00,,,0.10,Wunderground v.1.15,2013-03-25 18:15:00,
2013-03-25 14:21:00,83.5,72.7,30.80,NW,307,2.0,9.0,70,0.00,,,0.10,Wunderground v.1.15,2013-03-25 18:21:00,
2013-03-25 14:26:00,83.1,71.0,30.80,WNW,297,2.0,9.0,67,0.00,,,0.10,Wunderground v.1.15,2013-03-25 18:26:00,
2013-03-25 14:32:00,82.2,70.6,30.80,NW,312,2.0,9.0,68,0.00,,,0.10,Wunderground v.1.15,2013-03-25 18:32:00,
2013-03-25 14:37:00,81.8,70.6,30.80,NNW,330,2.0,9.0,69,0.00,,,0.10,Wunderground v.1.15,2013-03-25 18:37:00,
2013-03-25 14:43:00,81.3,69.3,30.80,NNW,345,1.0,9.0,67,0.00,,,0.10,Wunderground v.1.15,2013-03-25 18:43:00,
2013-03-25 14:48:00,80.9,68.9,30.80,NW,315,1.0,9.0,67,0.00,,,0.10,Wunderground v.1.15,2013-03-25 18:48:00,
2013-03-25 15:02:00,80.7,69.6,30.79,NW,324,1.0,9.0,69,0.00,,,0.10,Wunderground v.1.15,2013-03-25 19:02:00,
2013-03-25 15:07:00,80.4,69.7,30.79,NNW,334,2.0,9.0,70,0.00,,,0.10,Wunderground v.1.15,2013-03-25 19:07:00,
2013-03-25 15:13:00,80.8,69.2,30.79,NW,322,2.0,9.0,68,0.00,,,0.10,Wunderground v.1.15,2013-03-25 19:13:00,
2013-03-25 15:19:00,81.1,69.5,30.79,NW,324,1.0,9.0,68,0.00,,,0.10,Wunderground v.1.15,2013-03-25 19:19:00,
2013-03-25 15:25:00,81.3,69.7,30.79,NNW,328,1.0,9.0,68,0.00,,,0.10,Wunderground v.1.15,2013-03-25 19:25:00,
2013-03-25 15:31:00,81.3,70.2,30.78,NW,311,1.0,9.0,69,0.00,,,0.10,Wunderground v.1.15,2013-03-25 19:31:00,
2013-03-25 15:36:00,81.3,70.2,30.78,NNW,327,1.0,9.0,69,0.00,,,0.10,Wunderground v.1.15,2013-03-25 19:36:00,
2013-03-25 15:41:00,81.4,69.8,30.78,NW,326,1.0,9.0,68,0.00,,,0.10,Wunderground v.1.15,2013-03-25 19:41:00,
2013-03-25 15:47:00,81.9,69.9,30.78,NW,315,1.0,9.0,67,0.00,,,0.10,Wunderground v.1.15,2013-03-25 19:47:00,
2013-03-25 15:53:00,82.5,70.4,30.78,NW,316,1.0,9.0,67,0.00,,,0.10,Wunderground v.1.15,2013-03-25 19:53:00,
2013-03-25 15:58:00,82.3,70.7,30.78,WNW,293,1.0,9.0,68,0.00,,,0.10,Wunderground v.1.15,2013-03-25 19:58:00,
2013-03-25 16:03:00,81.8,70.2,30.78,West,273,1.0,9.0,68,0.00,,,0.10,Wunderground v.1.15,2013-03-25 20:03:00,
2013-03-25 16:09:00,81.4,69.8,30.78,NW,313,1.0,9.0,68,0.00,,,0.10,Wunderground v.1.15,2013-03-25 20:09:00,
2013-03-25 16:15:00,81.6,69.1,30.78,NW,315,1.0,9.0,66,0.00,,,0.10,Wunderground v.1.15,2013-03-25 20:15:00,
2013-03-25 16:22:00,81.5,69.5,30.78,NW,311,1.0,9.0,67,0.00,,,0.10,Wunderground v.1.15,2013-03-25 20:22:00,
2013-03-25 16:27:00,81.0,69.0,30.78,NW,315,1.0,9.0,67,0.00,,,0.10,Wunderground v.1.15,2013-03-25 20:27:00,
2013-03-25 16:32:00,80.9,69.3,30.78,NW,316,1.0,9.0,68,0.00,,,0.10,Wunderground v.1.15,2013-03-25 20:32:00,
2013-03-25 16:37:00,80.7,69.2,30.78,NNW,348,1.0,9.0,68,0.00,,,0.10,Wunderground v.1.15,2013-03-25 20:37:00,
2013-03-25 16:42:00,80.5,69.4,30.78,North,359,1.0,9.0,69,0.00,,,0.10,Wunderground v.1.15,2013-03-25 20:42:00,
2013-03-25 16:48:00,80.2,68.7,30.79,NNW,338,1.0,9.0,68,0.00,,,0.10,Wunderground v.1.15,2013-03-25 20:48:00,
2013-03-25 16:54:00,79.8,69.1,30.79,WNW,293,0.0,9.0,70,0.00,,,0.10,Wunderground v.1.15,2013-03-25 20:54:00,
2013-03-25 16:59:00,79.4,69.2,30.80,NW,316,1.0,9.0,71,0.00,,,0.10,Wunderground v.1.15,2013-03-25 20:59:00,
2013-03-25 17:04:00,79.0,69.2,30.80,NW,309,1.0,9.0,72,0.00,,,0.10,Wunderground v.1.15,2013-03-25 21:04:00,
2013-03-25 17:10:00,78.7,68.5,30.80,WNW,284,1.0,9.0,71,0.00,,,0.10,Wunderground v.1.15,2013-03-25 21:10:00,
2013-03-25 17:15:00,78.5,67.9,30.80,NW,316,1.0,9.0,70,0.00,,,0.10,Wunderground v.1.15,2013-03-25 21:15:00,
2013-03-25 17:20:00,78.4,68.6,30.80,NW,310,1.0,9.0,72,0.00,,,0.10,Wunderground v.1.15,2013-03-25 21:20:00,
2013-03-25 17:27:00,77.6,70.2,30.80,NW,321,2.0,9.0,78,0.00,,,0.11,Wunderground v.1.15,2013-03-25 21:27:00,
2013-03-25 17:32:00,75.7,70.2,30.80,WNW,284,2.0,9.0,83,0.15,,,0.12,Wunderground v.1.15,2013-03-25 21:32:00,
2013-03-25 17:38:00,74.6,70.1,30.80,NW,314,2.0,9.0,86,0.06,,,0.12,Wunderground v.1.15,2013-03-25 21:38:00,
2013-03-25 17:44:00,74.0,69.9,30.81,NW,324,2.0,9.0,87,0.04,,,0.12,Wunderground v.1.15,2013-03-25 21:44:00,
2013-03-25 17:49:00,73.7,69.6,30.81,NW,309,2.0,9.0,87,0.00,,,0.12,Wunderground v.1.15,2013-03-25 21:49:00,
2013-03-25 17:54:00,73.8,70.0,30.80,NW,323,2.0,9.0,88,0.00,,,0.12,Wunderground v.1.15,2013-03-25 21:54:00,
2013-03-25 18:00:00,73.8,70.0,30.80,NNW,333,2.0,9.0,88,0.00,,,0.12,Wunderground v.1.15,2013-03-25 22:00:00,
2013-03-25 18:07:00,73.8,69.3,30.81,NW,304,1.0,9.0,86,0.00,,,0.12,Wunderground v.1.15,2013-03-25 22:07:00,
2013-03-25 18:13:00,73.8,69.3,30.81,NW,304,2.0,9.0,86,0.00,,,0.12,Wunderground v.1.15,2013-03-25 22:13:00,
2013-03-25 18:18:00,74.0,68.9,30.81,NW,325,2.0,9.0,84,0.00,,,0.12,Wunderground v.1.15,2013-03-25 22:18:00,
2013-03-25 18:24:00,74.2,69.1,30.81,NW,305,2.0,9.0,84,0.00,,,0.12,Wunderground v.1.15,2013-03-25 22:24:00,
2013-03-25 18:30:00,74.6,69.4,30.81,NW,317,2.0,2.0,84,0.00,,,0.12,Wunderground v.1.15,2013-03-25 22:30:00,
2013-03-25 18:35:00,74.7,69.2,30.81,NW,315,2.0,9.0,83,0.00,,,0.12,Wunderground v.1.15,2013-03-25 22:35:00,
2013-03-25 18:41:00,74.7,68.8,30.82,NNW,327,2.0,9.0,82,0.00,,,0.12,Wunderground v.1.15,2013-03-25 22:41:00,
2013-03-25 18:47:00,74.8,68.9,30.82,NW,308,2.0,9.0,82,0.00,,,0.12,Wunderground v.1.15,2013-03-25 22:47:00,
2013-03-25 18:52:00,74.6,68.4,30.82,NW,304,2.0,9.0,81,0.00,,,0.12,Wunderground v.1.15,2013-03-25 22:52:00,
2013-03-25 18:58:00,74.4,67.8,30.82,NW,316,2.0,9.0,80,0.00,,,0.12,Wunderground v.1.15,2013-03-25 22:58:00,
2013-03-25 19:03:00,74.4,68.2,30.82,NW,316,2.0,9.0,81,0.00,,,0.12,Wunderground v.1.15,2013-03-25 23:03:00,
2013-03-25 19:09:00,74.4,68.5,30.83,WNW,295,2.0,9.0,82,0.00,,,0.12,Wunderground v.1.15,2013-03-25 23:09:00,
2013-03-25 19:14:00,74.4,68.5,30.83,NW,309,2.0,9.0,82,0.00,,,0.12,Wunderground v.1.15,2013-03-25 23:14:00,
2013-03-25 19:20:00,74.4,68.5,30.85,WSW,252,2.0,9.0,82,0.00,,,0.12,Wunderground v.1.15,2013-03-25 23:20:00,
2013-03-25 19:25:00,74.3,68.1,30.85,WNW,300,3.0,9.0,81,0.00,,,0.12,Wunderground v.1.15,2013-03-25 23:25:00,
2013-03-25 19:30:00,73.9,68.1,30.83,NW,312,3.0,9.0,82,0.00,,,0.12,Wunderground v.1.15,2013-03-25 23:30:00,
2013-03-25 19:36:00,73.4,67.9,30.84,NNW,327,4.0,9.0,83,0.00,,,0.12,Wunderground v.1.15,2013-03-25 23:36:00,
2013-03-25 19:41:00,73.1,68.0,30.85,WNW,290,4.0,9.0,84,0.00,,,0.12,Wunderground v.1.15,2013-03-25 23:41:00,
2013-03-25 19:47:00,72.8,68.0,30.85,WNW,294,3.0,9.0,85,0.00,,,0.12,Wunderground v.1.15,2013-03-25 23:47:00,
2013-03-25 19:53:00,72.7,67.6,30.85,NW,318,3.0,9.0,84,0.00,,,0.12,Wunderground v.1.15,2013-03-25 23:53:00,
2013-03-25 19:59:00,72.6,67.5,30.85,NW,325,3.0,9.0,84,0.00,,,0.12,Wunderground v.1.15,2013-03-25 23:59:00,
2013-03-25 20:04:00,72.4,68.0,30.85,NW,326,3.0,9.0,86,0.00,,,0.12,Wunderground v.1.15,2013-03-26 00:04:00,
2013-03-25 20:10:00,72.4,68.0,30.85,NW,318,3.0,3.0,86,0.00,,,0.13,Wunderground v.1.15,2013-03-26 00:10:00,
2013-03-25 20:16:00,72.3,67.9,30.84,NNW,332,3.0,9.0,86,0.00,,,0.13,Wunderground v.1.15,2013-03-26 00:16:00,
2013-03-25 20:21:00,72.2,67.8,30.85,NW,310,3.0,9.0,86,0.00,,,0.13,Wunderground v.1.15,2013-03-26 00:21:00,
2013-03-25 20:27:00,72.2,68.1,30.86,NW,321,3.0,9.0,87,0.00,,,0.13,Wunderground v.1.15,2013-03-26 00:27:00,
2013-03-25 20:33:00,72.3,68.2,30.86,NW,315,3.0,9.0,87,0.00,,,0.13,Wunderground v.1.15,2013-03-26 00:33:00,
2013-03-25 20:39:00,71.8,67.7,30.86,NW,304,3.0,9.0,87,0.00,,,0.14,Wunderground v.1.15,2013-03-26 00:39:00,
2013-03-25 20:44:00,71.6,67.9,30.86,NW,311,3.0,9.0,88,0.00,,,0.14,Wunderground v.1.15,2013-03-26 00:44:00,
2013-03-25 20:49:00,71.6,67.5,30.86,NW,316,3.0,9.0,87,0.00,,,0.14,Wunderground v.1.15,2013-03-26 00:49:00,
2013-03-25 20:55:00,71.9,67.8,30.87,WNW,299,3.0,9.0,87,0.00,,,0.14,Wunderground v.1.15,2013-03-26 00:55:00,
2013-03-25 21:01:00,72.2,68.1,30.87,NNW,333,3.0,9.0,87,0.00,,,0.14,Wunderground v.1.15,2013-03-26 01:01:00,
2013-03-25 21:07:00,72.4,67.6,30.87,NW,308,3.0,9.0,85,0.00,,,0.14,Wunderground v.1.15,2013-03-26 01:07:00,
2013-03-25 21:13:00,72.6,67.8,30.87,NNW,345,2.0,9.0,85,0.00,,,0.14,Wunderground v.1.15,2013-03-26 01:13:00,
2013-03-25 21:18:00,72.8,67.7,30.88,NW,325,2.0,9.0,84,0.00,,,0.14,Wunderground v.1.15,2013-03-26 01:18:00,
2013-03-25 21:23:00,72.9,67.1,30.88,WNW,285,2.0,9.0,82,0.00,,,0.14,Wunderground v.1.15,2013-03-26 01:23:00,
2013-03-25 21:28:00,72.9,66.7,30.89,NNW,343,3.0,9.0,81,0.00,,,0.14,Wunderground v.1.15,2013-03-26 01:28:00,
2013-03-25 21:34:00,73.1,66.6,30.89,NNW,346,3.0,9.0,80,0.00,,,0.14,Wunderground v.1.15,2013-03-26 01:34:00,
2013-03-25 21:39:00,73.1,66.6,30.89,NNW,335,3.0,9.0,80,0.00,,,0.14,Wunderground v.1.15,2013-03-26 01:39:00,
2013-03-25 21:44:00,73.2,65.9,30.90,North,353,3.0,9.0,78,0.00,,,0.14,Wunderground v.1.15,2013-03-26 01:44:00,
2013-03-25 21:50:00,73.4,65.4,30.90,NNE,19,4.0,4.0,76,0.00,,,0.14,Wunderground v.1.15,2013-03-26 01:50:00,
2013-03-25 21:55:00,73.5,64.7,30.90,North,349,4.0,9.0,74,0.00,,,0.14,Wunderground v.1.15,2013-03-26 01:55:00,
2013-03-25 22:01:00,73.6,63.2,30.91,NNE,24,4.0,9.0,70,0.00,,,0.14,Wunderground v.1.15,2013-03-26 02:01:00,
2013-03-25 22:06:00,73.6,63.2,30.92,NNE,22,4.0,9.0,70,0.00,,,0.14,Wunderground v.1.15,2013-03-26 02:06:00,
2013-03-25 22:12:00,73.5,62.3,30.92,North,356,3.0,9.0,68,0.00,,,0.14,Wunderground v.1.15,2013-03-26 02:12:00,
2013-03-25 22:17:00,73.1,61.9,30.92,NNE,22,4.0,9.0,68,0.00,,,0.14,Wunderground v.1.15,2013-03-26 02:17:00,
2013-03-25 22:23:00,72.9,60.4,30.92,East,98,4.0,9.0,65,0.00,,,0.14,Wunderground v.1.15,2013-03-26 02:23:00,
2013-03-25 22:28:00,73.0,59.2,30.92,NNW,343,4.0,9.0,62,0.00,,,0.14,Wunderground v.1.15,2013-03-26 02:28:00,
2013-03-25 22:33:00,73.2,58.9,30.92,NNW,338,4.0,9.0,61,0.00,,,0.14,Wunderground v.1.15,2013-03-26 02:33:00,
2013-03-25 22:39:00,73.3,57.1,30.92,North,360,4.0,9.0,57,0.00,,,0.14,Wunderground v.1.15,2013-03-26 02:39:00,
2013-03-25 22:45:00,73.2,58.5,30.92,NW,310,5.0,9.0,60,0.00,,,0.14,Wunderground v.1.15,2013-03-26 02:45:00,
2013-03-25 22:51:00,73.2,59.8,30.93,NNW,343,4.0,9.0,63,0.00,,,0.14,Wunderground v.1.15,2013-03-26 02:51:00,
2013-03-25 22:56:00,73.2,58.9,30.93,NW,304,4.0,9.0,61,0.00,,,0.14,Wunderground v.1.15,2013-03-26 02:56:00,
2013-03-25 23:02:00,72.9,57.7,30.94,North,5,3.0,9.0,59,0.00,,,0.14,Wunderground v.1.15,2013-03-26 03:02:00,
2013-03-25 23:08:00,72.7,55.1,30.94,NNW,343,4.0,11.0,54,0.00,,,0.14,Wunderground v.1.15,2013-03-26 03:08:00,
2013-03-25 23:14:00,72.5,54.4,30.95,NE,43,3.0,9.0,53,0.00,,,0.14,Wunderground v.1.15,2013-03-26 03:14:00,
2013-03-25 23:19:00,72.4,55.8,30.95,NW,316,3.0,9.0,56,0.00,,,0.14,Wunderground v.1.15,2013-03-26 03:19:00,
2013-03-25 23:24:00,72.1,55.5,30.94,NNW,332,3.0,9.0,56,0.00,,,0.14,Wunderground v.1.15,2013-03-26 03:24:00,
2013-03-25 23:29:00,71.7,54.7,30.95,NNE,25,3.0,9.0,55,0.00,,,0.14,Wunderground v.1.15,2013-03-26 03:29:00,
2013-03-25 23:35:00,71.5,53.5,30.96,NW,315,4.0,9.0,53,0.00,,,0.14,Wunderground v.1.15,2013-03-26 03:35:00,
2013-03-25 23:41:00,71.4,53.9,30.95,West,280,5.0,9.0,54,0.00,,,0.14,Wunderground v.1.15,2013-03-26 03:41:00,
2013-03-25 23:46:00,71.3,51.1,30.95,NE,43,6.0,9.0,49,0.00,,,0.14,Wunderground v.1.15,2013-03-26 03:46:00,
2013-03-25 23:51:00,71.1,52.0,30.95,NNE,29,6.0,8.0,51,0.00,,,0.14,Wunderground v.1.15,2013-03-26 03:51:00,
2013-03-25 23:56:00,71.1,52.6,30.95,NW,326,5.0,9.0,52,0.00,,,0.14,Wunderground v.1.15,2013-03-26 03:56:00,